[[{"header":{"parameterUnit":"m.s-1","parameterCategory":1,"la1":30.2992,"la2":30.254,"lo1":-89.0895,"lo2":-89.0443,"dy":0.0025,"dx":0.0025,"nx":19,"ny":19,"refTime":"2026-03-31T09:00:00:Z","depth":0,"parameterNumber":2,"parameterNumberName":"U-component_of_WINDS"},"data":[0,0,0,-4.0237,-4.0239,-4.0352,-4.0352,-4.05,-4.0501,0,0,0,0,0,0,0,0,0,0,0,-4.0207,-4.0208,-4.0237,-4.024,-4.0352,-4.0352,-4.0499,-4.0501,0,0,0,0,0,0,0,0,0,0,0,-4.0207,-4.0208,-4.021,-4.024,-4.0352,-4.0352,-4.0499,-4.0413,0,0,0,0,0,0,0,0,0,0,-4.0303,-4.0279,-4.0208,-4.021,-4.0241,-4.0351,-4.0352,-4.0409,-4.0418,-4.0451,0,-4.0482,0,-4.0494,-4.0511,-4.0512,0,0,0,-4.0237,-4.0271,-4.0299,-4.021,-4.0242,-4.0351,-4.03,-4.0414,-4.0425,-4.0464,-4.0484,-4.0489,-4.0496,-4.0512,-4.0513,-4.0714,-4.0715,0,0,-4.0231,-4.0229,-4.0291,-4.0306,-4.029,-4.0297,-4.0304,-4.042,-4.0442,-4.0485,-4.0493,-4.0499,-4.0513,-4.0514,-4.0713,-4.0714,0,0,0,-4.0215,-4.0225,-4.0249,-4.03,-4.032,-4.03,-4.0308,-4.0437,-4.0445,-4.0494,-4.0501,-4.0514,-4.0516,-4.0712,-4.0714,-4.0765,0,0,0,-4.0211,-4.0216,-4.0246,-4.0247,-4.0318,-4.038,-4.0322,-4.0437,-4.045,-4.05,-4.0514,-4.0518,-4.0711,-4.0713,-4.0761,-4.0788,0,0,0,-4.0199,-4.0214,-4.0232,-4.0246,-4.0295,-4.0378,-4.0393,-4.044,-4.0454,-4.0512,-4.0518,-4.071,-4.0712,-4.0757,-4.0783,-4.084,0,0,0,-4.0185,-4.0275,-4.0232,-4.0336,-4.0294,-4.041,-4.0392,-4.0478,-4.0534,-4.0515,-4.0711,-4.0713,-4.0756,-4.0779,-4.0836,-4.0887,-4.0908,0,0,-4.0298,-4.0289,-4.035,-4.0315,-4.0438,-4.0393,-4.0523,-4.0575,-4.0582,-4.0669,-4.0674,-4.0762,-4.0782,-4.0839,-4.1032,-4.1049,0,0,0,-4.0385,-4.0429,-4.0462,-4.0516,-4.0558,-4.0597,-4.063,-4.0649,-4.0724,-4.0627,-4.0799,-4.0811,-4.0845,-4.0869,-4.0883,-4.0911,-4.0725,-4.0725,-4.0725,-4.0542,-4.0546,-4.0647,-4.0665,-4.0718,-4.0751,-4.0793,-4.0825,-4.0814,-4.0855,-4.088,-4.0996,-4.1025,-4.1035,-4.1065,-4.0908,-4.0909,-4.0909,-4.0909,-4.0707,-4.0768,-4.0753,-4.0845,-4.0849,-4.0926,-4.0962,-4.0951,-4.1023,-4.0977,-4.1007,-4.0956,-4.1054,-4.108,-4.0913,-4.0912,-4.0912,-4.0911,-4.0911,-4.0808,-4.0839,-4.0862,-4.0939,-4.0999,-4.1014,-4.1084,-4.1085,-4.1087,-4.1117,-4.1143,-4.1142,-4.114,-4.1129,-4.113,-4.113,-4.1131,-4.1131,-4.1131,-4.0904,-4.0928,-4.0987,-4.1041,-4.1075,-4.1121,-4.1156,-4.1189,-4.1227,-4.1222,-4.1222,-4.1206,-4.1064,-4.1027,-4.1137,-4.1136,-4.1136,-4.1135,-4.1135,-4.1066,-4.103,-4.1121,-4.1156,-4.1218,-4.1277,-4.1279,-4.1347,-4.1375,-4.1409,-4.1388,-4.1283,-4.1273,-4.1261,-4.1231,-4.1388,-4.1388,-4.1388,-4.1388,-4.1151,-4.1147,-4.124,-4.1295,-4.1349,-4.136,-4.1462,-4.149,-4.1513,-4.153,-4.1508,-4.1468,-4.1457,-4.1454,-4.1438,-4.1409,-4.1608,-4.1609,-4.1609,-4.125,-4.1252,-4.1338,-4.1361,-4.141,-4.1452,-4.1548,-4.1611,-4.163,-4.1618,-4.1544,-4.1534,-4.147,-4.1449,-4.1433,-4.1409,-4.1356,0,0]},{"header":{"parameterUnit":"m.s-1","parameterCategory":1,"la1":30.2992,"la2":30.254,"lo1":-89.0895,"lo2":-89.0443,"dy":0.0025,"dx":0.0025,"nx":19,"ny":19,"refTime":"2026-03-31T09:00:00:Z","depth":0,"parameterNumber":3,"parameterNumberName":"V-component_of_WINDS"},"data":[0,0,0,3.7214,3.7217,3.7349,3.735,3.752,3.7521,0,0,0,0,0,0,0,0,0,0,0,3.7177,3.7178,3.7214,3.7218,3.7349,3.735,3.752,3.7521,0,0,0,0,0,0,0,0,0,0,0,3.7176,3.7178,3.7179,3.7218,3.7349,3.735,3.7519,3.7419,0,0,0,0,0,0,0,0,0,0,3.7291,3.7257,3.7177,3.7179,3.7219,3.7349,3.735,3.7414,3.7425,3.7461,0,3.7493,0,3.751,3.7533,3.7533,0,0,0,3.7216,3.7248,3.7282,3.7179,3.722,3.7349,3.7289,3.742,3.7433,3.7476,3.7496,3.7502,3.7513,3.7534,3.7535,3.7747,3.7748,0,0,3.7209,3.7201,3.7274,3.7291,3.7271,3.7285,3.7294,3.7428,3.7449,3.7496,3.7506,3.7516,3.7535,3.7536,3.7746,3.7748,0,0,0,3.7189,3.7196,3.7227,3.7284,3.7307,3.7289,3.7299,3.7443,3.7454,3.7508,3.7518,3.7536,3.7538,3.7745,3.7747,3.7793,0,0,0,3.7185,3.7184,3.7224,3.722,3.7305,3.7377,3.7311,3.7445,3.746,3.7517,3.7536,3.754,3.7744,3.7746,3.7789,3.7816,0,0,0,3.7168,3.7182,3.7202,3.7219,3.7276,3.7375,3.7394,3.7448,3.7466,3.7534,3.754,3.7743,3.7746,3.7786,3.781,3.7871,0,0,0,3.7147,3.7238,3.7202,3.7308,3.7275,3.7402,3.7393,3.7488,3.7551,3.7537,3.7744,3.7747,3.7784,3.7807,3.7867,3.7922,3.7943,0,0,3.7257,3.7251,3.7315,3.7286,3.7418,3.7383,3.7521,3.7586,3.7599,3.7697,3.7702,3.779,3.781,3.787,3.8064,3.8081,0,0,0,3.7347,3.7393,3.7429,3.749,3.7543,3.7591,3.7635,3.766,3.7744,3.7648,3.7828,3.784,3.7876,3.7902,3.7917,3.7949,3.7758,3.7758,3.7758,3.7492,3.7506,3.7612,3.7642,3.7701,3.7748,3.7797,3.7838,3.7832,3.7875,3.7904,3.8021,3.8051,3.8062,3.8096,3.7933,3.7933,3.7933,3.7933,3.7657,3.7725,3.7718,3.7819,3.7833,3.7918,3.7967,3.7961,3.8042,3.7999,3.8031,3.7984,3.8081,3.8111,3.7937,3.7936,3.7936,3.7935,3.7935,3.7754,3.779,3.7819,3.791,3.7978,3.8005,3.8085,3.8094,3.8103,3.8135,3.8168,3.8168,3.817,3.815,3.815,3.8151,3.8151,3.8151,3.8152,3.7845,3.7877,3.7943,3.8009,3.805,3.8106,3.8155,3.8196,3.8244,3.8244,3.8245,3.8237,3.8087,3.805,3.8158,3.8157,3.8156,3.8155,3.8155,3.801,3.7975,3.8077,3.8119,3.8198,3.8267,3.8278,3.8362,3.8397,3.8436,3.8422,3.8309,3.8303,3.8291,3.8261,3.8417,3.8417,3.8417,3.8417,3.8094,3.8092,3.8201,3.8267,3.8334,3.8355,3.8472,3.8512,3.8546,3.857,3.8548,3.8508,3.8496,3.8497,3.8481,3.8453,3.8655,3.8655,3.8655,3.8197,3.8203,3.83,3.8336,3.8399,3.8453,3.8564,3.8641,3.8673,3.8665,3.8588,3.8578,3.8514,3.8492,3.8483,3.8458,3.8406,0,0]}]]